Location: Unspecified
(0.0000°N, 0.0000°E)
Time: 01:28:01
(UTC+00:00)

Courier 1B Rocket - Pass Details

Date: 25 November 2019
Orbit: 920 x 1202 km, 28.2° (Epoch: 10 December)

Event Time Altitude Azimuth Distance (km) Brightness Sun altitude
Rises 21:36:39 0° 282° (WNW) 4,070 8.6 -51.9°
Reaches altitude 10° 21:39:43 10° 274° (W) 3,121 7.9 -52.6°
Enters shadow 21:39:47 10° 274° (W) 3,101 7.9 -52.6°
